Flag for Germany Weather past 2 weeks in Neu-Ulm, Bavaria, Germany

Now
61 °F

Passing clouds.


Feels Like: 61 °F
Forecast: 61 / 88 °F
Wind: 1 mph from Southwest

Location: Laupheim Airport

Current Time: Jul 2, 2015 at 6:17:23 AM

Latest Report: Jul 2, 2015 at 5:20 AM


Visibility: N/A

Pressure: 30.18 "Hg

Humidity: 88%

Dew point: 57 °F

Location of Neu-UlmLocation

Historic Weather in Neu-Ulm — Graph

°F

Neu-Ulm temperature yesterday

Maximum temperature yesterday: 84 °F (at 3:20 PM)
Minimum temperature yesterday: 57 °F (at 5:20 AM)
Average temperature yesterday: 73 °F

Past Weeks' High & Low Weather Summary

 TemperatureHumidityPressure
High84 °F (Jul 1, 3:20 PM)100% (Jun 18, 9:20 PM)30.24 "Hg (Jun 18, 9:20 PM)
Low46 °F (Jun 25, 5:20 AM)37% (Jul 1, 5:00 PM)29.74 "Hg (Jun 22, 9:20 PM)
Average61 °F72%30.12 "Hg
* Reported Jun 17 4:20 AM — Jul 2 4:20 AM, Neu-Ulm, Weather by CustomWeather, © 2015

Note: Actual official high and low records may vary slightly from our data, if they occured in-between our weather recording intervals... More about our weather records

Advertising

Neu-Ulm weather history for previous 24 hours

 ConditionsComfort  
Time TempWeatherWind HumidityBarometerVisibility
4:20 AM
Thu, Jul 2
64 °FPassing clouds.3 mph83%30.18 "HgN/A
3:20 AM64 °FPassing clouds.3 mph83%30.18 "HgN/A
2:20 AM64 °FMild.5 mph83%30.18 "HgN/A
1:20 AM68 °FMild.5 mph73%30.18 "HgN/A
12:20 AM72 °FPassing clouds.3 mph61%30.15 "HgN/A
11:20 PM
Wed, Jul 1
72 °FPassing clouds.5 mph65%30.15 "HgN/A
10:20 PM75 °FPassing clouds.6 mph57%30.15 "HgN/A
9:20 PM77 °FPassing clouds.5 mph54%30.12 "HgN/A
8:20 PM79 °FPassing clouds.8 mph54%30.12 "HgN/A
7:20 PM82 °FWarm.8 mph45%30.12 "HgN/A
6:20 PM84 °FPleasantly warm.7 mph37%30.12 "HgN/A
5:20 PM84 °FPleasantly warm.7 mph37%30.12 "HgN/A
5:00 PM84 °FPleasantly warm.7 mph37%30.12 "HgN/A
4:20 PM84 °FPleasantly warm.8 mph40%30.12 "HgN/A
3:20 PM84 °FPleasantly warm.8 mph40%30.12 "HgN/A
2:20 PM82 °FPleasantly warm.7 mph40%30.12 "HgN/A
1:20 PM82 °FPleasantly warm.9 mph40%30.15 "HgN/A
12:20 PM81 °FWarm.7 mph48%30.15 "HgN/A
11:20 AM77 °FWarm.8 mph51%30.15 "HgN/A
10:20 AM75 °FMild.5 mph57%30.15 "HgN/A
9:20 AM70 °FMild.3 mph64%30.15 "HgN/A
8:20 AM66 °FMild.3 mph73%30.15 "HgN/A
7:20 AM63 °FMild.3 mph77%30.15 "HgN/A
6:20 AM59 °FCool.2 mph88%30.15 "HgN/A
Weather by CustomWeather, © 2015

See weather overviewHow to use our weather pages